星链-35622(STARLINK-35622)

导读 | 豆包AI

STARLINK-35622是美国太空探索技术公司SpaceX于2025年10月19日发射的星链低轨互联网卫星,隶属于Starlink全球卫星互联网项目。该星链卫星部署于近地轨道,搭载Ku/Ka波段通信载荷与霍尔推进器,具备自主避撞能力,旨在为全球提供高速低延迟宽带互联网服务,助力缩小数字鸿沟,同时可支持军事等特殊领域通信需求,卫星设计寿命约5-7年,退役后将主动离轨在大气层烧毁。

基本信息
目录编号:
66103
目录名称:
STARLINK-35622
国际标识:
2025-236T
轨道中心:
EARTH
卫星名称:
星链-35622
卫星全名:
星链-35622(STARLINK-35622)
卫星状态:
在轨 (已飞行146 天)
发射日期:
2025-10-19 UTC
国别 :
美国 (US)
星等 :
--
轨道信息
数据来源 国际轨道数据
星历时间: 2026-03-13T17:58:10+0800
21小时前
查看轨道信息
半长轴: 6853.351km
偏心率: 0.0001122
轨道倾角: 53.159°
近地点辐角 87.219°
升交点赤经 86.663°
平近点角 272.894°
近地点: 474.445km
远地点: 475.983km
周期: 94.105分钟
每日圈数: 15.302004
详细信息
固有亮度:
5
最大亮度:
2.5
卫星平台:
Starlink V1.0
覆盖范围:
全球
运营商:
太空探索技术公司
运营商所在国:
美国
制造商(研发单位):
太空探索技术公司
制造商所在国:
美国
使用方式:
暂无
卫星简介
Starlink 计划是 SpaceX 推出的全球卫星互联网项目,通过发射低轨道卫星,为全球尤其是偏远地区提供高速、低延迟的互联网服务。自 2019 年起,Starlink 已部署数千颗卫星,旨在缩小全球数字鸿沟,推动互联网普及。该项目还为军事、航空等行业提供通信支持,带来广泛经济效益。
2D轨道图
3D轨道图
轨道高度分析图
轨道倾角分析图
轨道综合分析图
查看轨道综合分析图